Datum;"Wasserstand in cm";"Stationsnummer: 6602800";"Stationsname: Guben 2";"Gew?sser: Lausitzer Nei�e";"Fehlwerte: -777"
"05.04.2024 00:00";134
"05.04.2024 00:15";134
"05.04.2024 00:30";134
"05.04.2024 00:45";134
"05.04.2024 01:00";134
"05.04.2024 01:15";133
"05.04.2024 01:30";133
"05.04.2024 01:45";133
"05.04.2024 02:00";133
"05.04.2024 02:15";133
"05.04.2024 02:30";133
"05.04.2024 02:45";133
"05.04.2024 03:00";133
"05.04.2024 03:15";133
"05.04.2024 03:30";133
"05.04.2024 03:45";133
"05.04.2024 04:00";133
"05.04.2024 04:15";133
"05.04.2024 04:30";133
"05.04.2024 04:45";133
"05.04.2024 05:00";133
"05.04.2024 05:15";133
"05.04.2024 05:30";133
"05.04.2024 05:45";133
"05.04.2024 06:00";133
"05.04.2024 06:15";133
"05.04.2024 06:30";132
"05.04.2024 06:45";126
"05.04.2024 07:00";125
"05.04.2024 07:15";130
"05.04.2024 07:30";134
"05.04.2024 07:45";135
"05.04.2024 08:00";135
"05.04.2024 08:15";134
"05.04.2024 08:30";132
"05.04.2024 08:45";130
"05.04.2024 09:00";129
"05.04.2024 09:15";129
"05.04.2024 09:30";129
"05.04.2024 09:45";130
"05.04.2024 10:00";132
"05.04.2024 10:15";134
"05.04.2024 10:30";135
"05.04.2024 10:45";136
"05.04.2024 11:00";137
"05.04.2024 11:15";137
"05.04.2024 11:30";134
"05.04.2024 11:45";126
"05.04.2024 12:00";127
"05.04.2024 12:15";133
"05.04.2024 12:30";133
"05.04.2024 12:45";136
"05.04.2024 13:00";133
"05.04.2024 13:15";129
"05.04.2024 13:30";127
"05.04.2024 13:45";120
"05.04.2024 14:00";115
"05.04.2024 14:15";120
"05.04.2024 14:30";133
"05.04.2024 14:45";142
"05.04.2024 15:00";143
"05.04.2024 15:15";141
"05.04.2024 15:30";138
"05.04.2024 15:45";136
"05.04.2024 16:00";134
"05.04.2024 16:15";134
"05.04.2024 16:30";134
"05.04.2024 16:45";134
"05.04.2024 17:00";134
"05.04.2024 17:15";134
"05.04.2024 17:30";134
"05.04.2024 17:45";134
"05.04.2024 18:00";134
"05.04.2024 18:15";134
"05.04.2024 18:30";134
"05.04.2024 18:45";134
"05.04.2024 19:00";134
"05.04.2024 19:15";134
"05.04.2024 19:30";134
"05.04.2024 19:45";134
"05.04.2024 20:00";134
"05.04.2024 20:15";134
"05.04.2024 20:30";134
"05.04.2024 20:45";134
"05.04.2024 21:00";134
"05.04.2024 21:15";133
"05.04.2024 21:30";133
"05.04.2024 21:45";133
"05.04.2024 22:00";133
"05.04.2024 22:15";133
"05.04.2024 22:30";134
"05.04.2024 22:45";134
"05.04.2024 23:00";134
"05.04.2024 23:15";134
"05.04.2024 23:30";134
"05.04.2024 23:45";134
"06.04.2024 00:00";134
"06.04.2024 00:15";134
"06.04.2024 00:30";133
"06.04.2024 00:45";133
"06.04.2024 01:00";133
"06.04.2024 01:15";132
"06.04.2024 01:30";132
"06.04.2024 01:45";132
"06.04.2024 02:00";132
"06.04.2024 02:15";132
"06.04.2024 02:30";132
"06.04.2024 02:45";131
"06.04.2024 03:00";132
"06.04.2024 03:15";132
"06.04.2024 03:30";132
"06.04.2024 03:45";132
"06.04.2024 04:00";132
"06.04.2024 04:15";132
"06.04.2024 04:30";131
"06.04.2024 04:45";132
"06.04.2024 05:00";132
"06.04.2024 05:15";132
"06.04.2024 05:30";132
"06.04.2024 05:45";132
"06.04.2024 06:00";132
"06.04.2024 06:15";132
"06.04.2024 06:30";132
"06.04.2024 06:45";132
"06.04.2024 07:00";132
"06.04.2024 07:15";132
"06.04.2024 07:30";132
"06.04.2024 07:45";132
"06.04.2024 08:00";132
"06.04.2024 08:15";132
"06.04.2024 08:30";132
"06.04.2024 08:45";133
"06.04.2024 09:00";133
"06.04.2024 09:15";133
"06.04.2024 09:30";133
"06.04.2024 09:45";133
"06.04.2024 10:00";133
"06.04.2024 10:15";133
"06.04.2024 10:30";133
"06.04.2024 10:45";133
"06.04.2024 11:00";133
"06.04.2024 11:15";133
"06.04.2024 11:30";133
"06.04.2024 11:45";131
"06.04.2024 12:00";132
"06.04.2024 12:15";135
"06.04.2024 12:30";136
"06.04.2024 12:45";133
"06.04.2024 13:00";132
"06.04.2024 13:15";131
"06.04.2024 13:30";132
"06.04.2024 13:45";132
"06.04.2024 14:00";132
"06.04.2024 14:15";132
"06.04.2024 14:30";133
"06.04.2024 14:45";133
"06.04.2024 15:00";132
"06.04.2024 15:15";132
"06.04.2024 15:30";133
"06.04.2024 15:45";134
"06.04.2024 16:00";134
"06.04.2024 16:15";133
"06.04.2024 16:30";133
"06.04.2024 16:45";133
"06.04.2024 17:00";133
"06.04.2024 17:15";133
"06.04.2024 17:30";135
"06.04.2024 17:45";136
"06.04.2024 18:00";133
"06.04.2024 18:15";132
"06.04.2024 18:30";132
"06.04.2024 18:45";132
"06.04.2024 19:00";133
"06.04.2024 19:15";133
"06.04.2024 19:30";133
"06.04.2024 19:45";133
"06.04.2024 20:00";132
"06.04.2024 20:15";132
"06.04.2024 20:30";132
"06.04.2024 20:45";132
"06.04.2024 21:00";132
"06.04.2024 21:15";132
"06.04.2024 21:30";132
"06.04.2024 21:45";131
"06.04.2024 22:00";131
"06.04.2024 22:15";131
"06.04.2024 22:30";131
"06.04.2024 22:45";131
"06.04.2024 23:00";131
"06.04.2024 23:15";131
"06.04.2024 23:30";130
"06.04.2024 23:45";130
"07.04.2024 00:00";130
"07.04.2024 00:15";130
"07.04.2024 00:30";130
"07.04.2024 00:45";130
"07.04.2024 01:00";130
"07.04.2024 01:15";130
"07.04.2024 01:30";130
"07.04.2024 01:45";130
"07.04.2024 02:00";130
"07.04.2024 02:15";130
"07.04.2024 02:30";131
"07.04.2024 02:45";131
"07.04.2024 03:00";131
"07.04.2024 03:15";131
"07.04.2024 03:30";131
"07.04.2024 03:45";131
"07.04.2024 04:00";131
"07.04.2024 04:15";131
"07.04.2024 04:30";131
"07.04.2024 04:45";131
"07.04.2024 05:00";131
"07.04.2024 05:15";131
"07.04.2024 05:30";132
"07.04.2024 05:45";132
"07.04.2024 06:00";132
"07.04.2024 06:15";132
"07.04.2024 06:30";132
"07.04.2024 06:45";132
"07.04.2024 07:00";133
"07.04.2024 07:15";133
"07.04.2024 07:30";133
"07.04.2024 07:45";132
"07.04.2024 08:00";131
"07.04.2024 08:15";132
"07.04.2024 08:30";133
"07.04.2024 08:45";134
"07.04.2024 09:00";133
"07.04.2024 09:15";133
"07.04.2024 09:30";133
"07.04.2024 09:45";133
"07.04.2024 10:00";133
"07.04.2024 10:15";133
"07.04.2024 10:30";132
"07.04.2024 10:45";133
"07.04.2024 11:00";133
"07.04.2024 11:15";132
"07.04.2024 11:30";132
"07.04.2024 11:45";132
"07.04.2024 12:00";132
"07.04.2024 12:15";133
"07.04.2024 12:30";132
"07.04.2024 12:45";132
"07.04.2024 13:00";132
"07.04.2024 13:15";132
"07.04.2024 13:30";132
"07.04.2024 13:45";132
"07.04.2024 14:00";132
"07.04.2024 14:15";132
"07.04.2024 14:30";132
"07.04.2024 14:45";132
"07.04.2024 15:00";132
"07.04.2024 15:15";133
"07.04.2024 15:30";134
"07.04.2024 15:45";135
"07.04.2024 16:00";133
"07.04.2024 16:15";131
"07.04.2024 16:30";131
"07.04.2024 16:45";132
"07.04.2024 17:00";132
"07.04.2024 17:15";133
"07.04.2024 17:30";133
"07.04.2024 17:45";133
"07.04.2024 18:00";133
"07.04.2024 18:15";133
"07.04.2024 18:30";133
"07.04.2024 18:45";133
"07.04.2024 19:00";133
"07.04.2024 19:15";133
"07.04.2024 19:30";133
"07.04.2024 19:45";133
"07.04.2024 20:00";133
"07.04.2024 20:15";132
"07.04.2024 20:30";132
"07.04.2024 20:45";132
"07.04.2024 21:00";132
"07.04.2024 21:15";132
"07.04.2024 21:30";132
"07.04.2024 21:45";132
"07.04.2024 22:00";132
"07.04.2024 22:15";131
"07.04.2024 22:30";131
"07.04.2024 22:45";131
"07.04.2024 23:00";131
"07.04.2024 23:15";130
"07.04.2024 23:30";130
"07.04.2024 23:45";130
"08.04.2024 00:00";130
"08.04.2024 00:15";130
"08.04.2024 00:30";130
"08.04.2024 00:45";130
"08.04.2024 01:00";130
"08.04.2024 01:15";130
"08.04.2024 01:30";130
"08.04.2024 01:45";130
"08.04.2024 02:00";130
"08.04.2024 02:15";130
"08.04.2024 02:30";130
"08.04.2024 02:45";130
"08.04.2024 03:00";130
"08.04.2024 03:15";130
"08.04.2024 03:30";130
"08.04.2024 03:45";130
"08.04.2024 04:00";130
"08.04.2024 04:15";130
"08.04.2024 04:30";129
"08.04.2024 04:45";129
"08.04.2024 05:00";129
"08.04.2024 05:15";129
"08.04.2024 05:30";129
"08.04.2024 05:45";129
"08.04.2024 06:00";129
"08.04.2024 06:15";129
"08.04.2024 06:30";129
"08.04.2024 06:45";129
"08.04.2024 07:00";129
"08.04.2024 07:15";129
"08.04.2024 07:30";129
"08.04.2024 07:45";128
"08.04.2024 08:00";128
"08.04.2024 08:15";120
"08.04.2024 08:30";122
"08.04.2024 08:45";131
"08.04.2024 09:00";132
"08.04.2024 09:15";131
"08.04.2024 09:30";130
"08.04.2024 09:45";129
"08.04.2024 10:00";128
"08.04.2024 10:15";128
"08.04.2024 10:30";128
"08.04.2024 10:45";128
"08.04.2024 11:00";128
"08.04.2024 11:15";128
"08.04.2024 11:30";128
"08.04.2024 11:45";128
"08.04.2024 12:00";128
"08.04.2024 12:15";128
"08.04.2024 12:30";128
"08.04.2024 12:45";128
"08.04.2024 13:00";128
"08.04.2024 13:15";128
"08.04.2024 13:30";128
"08.04.2024 13:45";128
"08.04.2024 14:00";128
"08.04.2024 14:15";128
"08.04.2024 14:30";128
"08.04.2024 14:45";128
"08.04.2024 15:00";127
"08.04.2024 15:15";126
"08.04.2024 15:30";155
"08.04.2024 15:45";232
"08.04.2024 16:00";209
"08.04.2024 16:15";170
"08.04.2024 16:30";135
"08.04.2024 16:45";107
"08.04.2024 17:00";87
"08.04.2024 17:15";76
"08.04.2024 17:30";75
"08.04.2024 17:45";79
"08.04.2024 18:00";81
"08.04.2024 18:15";79
"08.04.2024 18:30";92
"08.04.2024 18:45";113
"08.04.2024 19:00";124
"08.04.2024 19:15";127
"08.04.2024 19:30";128
"08.04.2024 19:45";128
"08.04.2024 20:00";128
"08.04.2024 20:15";128
"08.04.2024 20:30";127
"08.04.2024 20:45";127
"08.04.2024 21:00";127
"08.04.2024 21:15";127
"08.04.2024 21:30";126
"08.04.2024 21:45";126
"08.04.2024 22:00";126
"08.04.2024 22:15";126
"08.04.2024 22:30";126
"08.04.2024 22:45";126
"08.04.2024 23:00";126
"08.04.2024 23:15";126
"08.04.2024 23:30";126
"08.04.2024 23:45";126
"09.04.2024 00:00";126
"09.04.2024 00:15";126
"09.04.2024 00:30";126
"09.04.2024 00:45";126
"09.04.2024 01:00";126
"09.04.2024 01:15";126
"09.04.2024 01:30";125
"09.04.2024 01:45";125
"09.04.2024 02:00";125
"09.04.2024 02:15";125
"09.04.2024 02:30";125
"09.04.2024 02:45";125
"09.04.2024 03:00";125
"09.04.2024 03:15";125
"09.04.2024 03:30";125
"09.04.2024 03:45";125
"09.04.2024 04:00";125
"09.04.2024 04:15";125
"09.04.2024 04:30";125
"09.04.2024 04:45";125
"09.04.2024 05:00";125
"09.04.2024 05:15";125
"09.04.2024 05:30";124
"09.04.2024 05:45";124
"09.04.2024 06:00";124
"09.04.2024 06:15";124
"09.04.2024 06:30";124
"09.04.2024 06:45";124
"09.04.2024 07:00";124
"09.04.2024 07:15";124
"09.04.2024 07:30";119
"09.04.2024 07:45";111
"09.04.2024 08:00";116
"09.04.2024 08:15";125
"09.04.2024 08:30";129
"09.04.2024 08:45";130
"09.04.2024 09:00";128
"09.04.2024 09:15";127
"09.04.2024 09:30";126
"09.04.2024 09:45";125
"09.04.2024 10:00";125
"09.04.2024 10:15";125
"09.04.2024 10:30";124
"09.04.2024 10:45";124
"09.04.2024 11:00";124
"09.04.2024 11:15";124
"09.04.2024 11:30";124
"09.04.2024 11:45";124
"09.04.2024 12:00";124
"09.04.2024 12:15";124
"09.04.2024 12:30";124
"09.04.2024 12:45";124
"09.04.2024 13:00";124
"09.04.2024 13:15";124
"09.04.2024 13:30";123
"09.04.2024 13:45";124
"09.04.2024 14:00";124
"09.04.2024 14:15";124
"09.04.2024 14:30";124
"09.04.2024 14:45";124
"09.04.2024 15:00";124
"09.04.2024 15:15";124
"09.04.2024 15:30";124
"09.04.2024 15:45";124
"09.04.2024 16:00";124
"09.04.2024 16:15";124
"09.04.2024 16:30";124
"09.04.2024 16:45";124
"09.04.2024 17:00";124
"09.04.2024 17:15";124
"09.04.2024 17:30";124
"09.04.2024 17:45";124
"09.04.2024 18:00";124
"09.04.2024 18:15";124
"09.04.2024 18:30";125
"09.04.2024 18:45";125
"09.04.2024 19:00";125
"09.04.2024 19:15";125
"09.04.2024 19:30";126
"09.04.2024 19:45";126
"09.04.2024 20:00";126
"09.04.2024 20:15";125
"09.04.2024 20:30";125
"09.04.2024 20:45";125
"09.04.2024 21:00";124
"09.04.2024 21:15";124
"09.04.2024 21:30";123
"09.04.2024 21:45";123
"09.04.2024 22:00";122
"09.04.2024 22:15";122
"09.04.2024 22:30";121
"09.04.2024 22:45";121
"09.04.2024 23:00";121
"09.04.2024 23:15";121
"09.04.2024 23:30";121
"09.04.2024 23:45";121
"10.04.2024 00:00";120
"10.04.2024 00:15";120
"10.04.2024 00:30";120
"10.04.2024 00:45";120
"10.04.2024 01:00";120
"10.04.2024 01:15";119
"10.04.2024 01:30";118
"10.04.2024 01:45";118
"10.04.2024 02:00";119
"10.04.2024 02:15";119
"10.04.2024 02:30";120
"10.04.2024 02:45";120
"10.04.2024 03:00";121
"10.04.2024 03:15";121
"10.04.2024 03:30";121
"10.04.2024 03:45";121
"10.04.2024 04:00";121
"10.04.2024 04:15";122
"10.04.2024 04:30";122
"10.04.2024 04:45";122
"10.04.2024 05:00";122
"10.04.2024 05:15";122
"10.04.2024 05:30";122
"10.04.2024 05:45";121
"10.04.2024 06:00";121
"10.04.2024 06:15";121
"10.04.2024 06:30";122
"10.04.2024 06:45";122
"10.04.2024 07:00";122
"10.04.2024 07:15";122
"10.04.2024 07:30";122
"10.04.2024 07:45";122
"10.04.2024 08:00";122
"10.04.2024 08:15";122
"10.04.2024 08:30";122
"10.04.2024 08:45";122
"10.04.2024 09:00";122
"10.04.2024 09:15";122
"10.04.2024 09:30";122
"10.04.2024 09:45";122
"10.04.2024 10:00";122
"10.04.2024 10:15";123
"10.04.2024 10:30";123
"10.04.2024 10:45";123
"10.04.2024 11:00";123
"10.04.2024 11:15";122
"10.04.2024 11:30";122
"10.04.2024 11:45";121
"10.04.2024 12:00";121
"10.04.2024 12:15";120
"10.04.2024 12:30";120
"10.04.2024 12:45";120
"10.04.2024 13:00";120
"10.04.2024 13:15";120
"10.04.2024 13:30";120
"10.04.2024 13:45";120
"10.04.2024 14:00";121
"10.04.2024 14:15";121
"10.04.2024 14:30";121
"10.04.2024 14:45";121
"10.04.2024 15:00";121
"10.04.2024 15:15";121
"10.04.2024 15:30";121
"10.04.2024 15:45";121
"10.04.2024 16:00";121
"10.04.2024 16:15";121
"10.04.2024 16:30";121
"10.04.2024 16:45";121
"10.04.2024 17:00";121
"10.04.2024 17:15";121
"10.04.2024 17:30";121
"10.04.2024 17:45";120
"10.04.2024 18:00";120
"10.04.2024 18:15";120
"10.04.2024 18:30";120
"10.04.2024 18:45";120
"10.04.2024 19:00";120
"10.04.2024 19:15";120
"10.04.2024 19:30";120
"10.04.2024 19:45";120
"10.04.2024 20:00";121
"10.04.2024 20:15";121
"10.04.2024 20:30";121
"10.04.2024 20:45";121
"10.04.2024 21:00";121
"10.04.2024 21:15";121
"10.04.2024 21:30";121
"10.04.2024 21:45";121
"10.04.2024 22:00";121
"10.04.2024 22:15";121
"10.04.2024 22:30";121
"10.04.2024 22:45";121
"10.04.2024 23:00";121
"10.04.2024 23:15";121
"10.04.2024 23:30";121
"10.04.2024 23:45";121
"11.04.2024 00:00";121
"11.04.2024 00:15";121
"11.04.2024 00:30";121
"11.04.2024 00:45";121
"11.04.2024 01:00";121
"11.04.2024 01:15";121
"11.04.2024 01:30";121
"11.04.2024 01:45";121
"11.04.2024 02:00";120
"11.04.2024 02:15";120
"11.04.2024 02:30";120
"11.04.2024 02:45";120
"11.04.2024 03:00";120
"11.04.2024 03:15";120
"11.04.2024 03:30";120
"11.04.2024 03:45";120
"11.04.2024 04:00";120
"11.04.2024 04:15";120
"11.04.2024 04:30";120
"11.04.2024 04:45";120
"11.04.2024 05:00";120
"11.04.2024 05:15";120
"11.04.2024 05:30";119
"11.04.2024 05:45";117
"11.04.2024 06:00";116
"11.04.2024 06:15";117
"11.04.2024 06:30";117
"11.04.2024 06:45";118
"11.04.2024 07:00";118
"11.04.2024 07:15";119
"11.04.2024 07:30";119
"11.04.2024 07:45";119
"11.04.2024 08:00";119
"11.04.2024 08:15";119
"11.04.2024 08:30";119
"11.04.2024 08:45";119
"11.04.2024 09:00";119
"11.04.2024 09:15";119
"11.04.2024 09:30";119
"11.04.2024 09:45";119
"11.04.2024 10:00";119
"11.04.2024 10:15";119
"11.04.2024 10:30";119
"11.04.2024 10:45";119
"11.04.2024 11:00";119
"11.04.2024 11:15";119
"11.04.2024 11:30";119
"11.04.2024 11:45";119
"11.04.2024 12:00";119
"11.04.2024 12:15";119
"11.04.2024 12:30";119
"11.04.2024 12:45";119
"11.04.2024 13:00";119
"11.04.2024 13:15";119
"11.04.2024 13:30";119
"11.04.2024 13:45";119
"11.04.2024 14:00";119
"11.04.2024 14:15";119
"11.04.2024 14:30";119
"11.04.2024 14:45";119
"11.04.2024 15:00";119
"11.04.2024 15:15";119
"11.04.2024 15:30";119
"11.04.2024 15:45";119
"11.04.2024 16:00";119
"11.04.2024 16:15";119
"11.04.2024 16:30";119
"11.04.2024 16:45";119
"11.04.2024 17:00";119
"11.04.2024 17:15";119
"11.04.2024 17:30";119
"11.04.2024 17:45";119
"11.04.2024 18:00";119
"11.04.2024 18:15";119
"11.04.2024 18:30";119
"11.04.2024 18:45";119
"11.04.2024 19:00";119
"11.04.2024 19:15";120
"11.04.2024 19:30";120
"11.04.2024 19:45";120
"11.04.2024 20:00";120
"11.04.2024 20:15";120
"11.04.2024 20:30";121
"11.04.2024 20:45";121
"11.04.2024 21:00";121
"11.04.2024 21:15";122
"11.04.2024 21:30";122
"11.04.2024 21:45";122
"11.04.2024 22:00";122
"11.04.2024 22:15";123
"11.04.2024 22:30";123
"11.04.2024 22:45";123
"11.04.2024 23:00";123
"11.04.2024 23:15";123
"11.04.2024 23:30";123
"11.04.2024 23:45";122
"12.04.2024 00:00";122
"12.04.2024 00:15";122
"12.04.2024 00:30";122
"12.04.2024 00:45";121
"12.04.2024 01:00";121
"12.04.2024 01:15";120
"12.04.2024 01:30";120
"12.04.2024 01:45";119
"12.04.2024 02:00";119
"12.04.2024 02:15";118
"12.04.2024 02:30";117
"12.04.2024 02:45";117
"12.04.2024 03:00";117
"12.04.2024 03:15";116
"12.04.2024 03:30";116
"12.04.2024 03:45";116
"12.04.2024 04:00";116
"12.04.2024 04:15";116
"12.04.2024 04:30";116
"12.04.2024 04:45";116
"12.04.2024 05:00";116
"12.04.2024 05:15";116
"12.04.2024 05:30";116
"12.04.2024 05:45";116
"12.04.2024 06:00";117
"12.04.2024 06:15";117
"12.04.2024 06:30";117
"12.04.2024 06:45";117
"12.04.2024 07:00";118
"12.04.2024 07:15";118
"12.04.2024 07:30";118
"12.04.2024 07:45";118
"12.04.2024 08:00";119
"12.04.2024 08:15";119
"12.04.2024 08:30";119
"12.04.2024 08:45";119
"12.04.2024 09:00";119
"12.04.2024 09:15";119
"12.04.2024 09:30";119
"12.04.2024 09:45";119
"12.04.2024 10:00";120
"12.04.2024 10:15";120
"12.04.2024 10:30";120
"12.04.2024 10:45";120
"12.04.2024 11:00";120
"12.04.2024 11:15";120
"12.04.2024 11:30";120
"12.04.2024 11:45";120
"12.04.2024 12:00";120
"12.04.2024 12:15";121
"12.04.2024 12:30";121
"12.04.2024 12:45";121
"12.04.2024 13:00";121
"12.04.2024 13:15";121
"12.04.2024 13:30";121
"12.04.2024 13:45";121
"12.04.2024 14:00";121
"12.04.2024 14:15";121
"12.04.2024 14:30";124
"12.04.2024 14:45";124
"12.04.2024 15:00";121
"12.04.2024 15:15";124
"12.04.2024 15:30";124
"12.04.2024 15:45";124
"12.04.2024 16:00";125
"12.04.2024 16:15";125
"12.04.2024 16:30";123
"12.04.2024 16:45";118
"12.04.2024 17:00";115
"12.04.2024 17:15";114
"12.04.2024 17:30";121
"12.04.2024 17:45";128
"12.04.2024 18:00";129
"12.04.2024 18:15";128
"12.04.2024 18:30";126
"12.04.2024 18:45";124
"12.04.2024 19:00";122
"12.04.2024 19:15";120
"12.04.2024 19:30";119
"12.04.2024 19:45";118
"12.04.2024 20:00";117
"12.04.2024 20:15";117
"12.04.2024 20:30";117
"12.04.2024 20:45";118
"12.04.2024 21:00";119
"12.04.2024 21:15";120
"12.04.2024 21:30";120
"12.04.2024 21:45";120
"12.04.2024 22:00";120
"12.04.2024 22:15";121
"12.04.2024 22:30";121
"12.04.2024 22:45";121
"12.04.2024 23:00";121
"12.04.2024 23:15";121
"12.04.2024 23:30";121
"12.04.2024 23:45";121
"13.04.2024 00:00";121
"13.04.2024 00:15";121
"13.04.2024 00:30";121
"13.04.2024 00:45";120
"13.04.2024 01:00";120
"13.04.2024 01:15";120
"13.04.2024 01:30";120
"13.04.2024 01:45";120
"13.04.2024 02:00";120
"13.04.2024 02:15";120
"13.04.2024 02:30";119
"13.04.2024 02:45";119
"13.04.2024 03:00";119
"13.04.2024 03:15";119
"13.04.2024 03:30";119
"13.04.2024 03:45";119
"13.04.2024 04:00";119
"13.04.2024 04:15";119
"13.04.2024 04:30";119
"13.04.2024 04:45";119
"13.04.2024 05:00";119
"13.04.2024 05:15";119
"13.04.2024 05:30";119
"13.04.2024 05:45";118
"13.04.2024 06:00";118
"13.04.2024 06:15";117
"13.04.2024 06:30";117
"13.04.2024 06:45";117
"13.04.2024 07:00";117
"13.04.2024 07:15";117
"13.04.2024 07:30";117
"13.04.2024 07:45";116
"13.04.2024 08:00";116
"13.04.2024 08:15";115
"13.04.2024 08:30";115
"13.04.2024 08:45";115
"13.04.2024 09:00";115
"13.04.2024 09:15";115
"13.04.2024 09:30";115
"13.04.2024 09:45";115
"13.04.2024 10:00";115
"13.04.2024 10:15";115
"13.04.2024 10:30";115
"13.04.2024 10:45";115
"13.04.2024 11:00";115
"13.04.2024 11:15";115
"13.04.2024 11:30";115
"13.04.2024 11:45";115
"13.04.2024 12:00";115
"13.04.2024 12:15";115
"13.04.2024 12:30";115
"13.04.2024 12:45";115
"13.04.2024 13:00";115
"13.04.2024 13:15";115
"13.04.2024 13:30";115
"13.04.2024 13:45";115
"13.04.2024 14:00";115
"13.04.2024 14:15";115
"13.04.2024 14:30";115
"13.04.2024 14:45";115
"13.04.2024 15:00";115
"13.04.2024 15:15";115
"13.04.2024 15:30";115
"13.04.2024 15:45";115
"13.04.2024 16:00";115
"13.04.2024 16:15";115
"13.04.2024 16:30";115
"13.04.2024 16:45";115
"13.04.2024 17:00";115
"13.04.2024 17:15";115
"13.04.2024 17:30";115
"13.04.2024 17:45";115
"13.04.2024 18:00";115
"13.04.2024 18:15";115
"13.04.2024 18:30";115
"13.04.2024 18:45";115
"13.04.2024 19:00";115
"13.04.2024 19:15";115
"13.04.2024 19:30";115
"13.04.2024 19:45";115
"13.04.2024 20:00";115
"13.04.2024 20:15";115
"13.04.2024 20:30";115
"13.04.2024 20:45";115
"13.04.2024 21:00";115
"13.04.2024 21:15";115
"13.04.2024 21:30";115
"13.04.2024 21:45";115
"13.04.2024 22:00";115
"13.04.2024 22:15";115
"13.04.2024 22:30";115
"13.04.2024 22:45";115
"13.04.2024 23:00";115
"13.04.2024 23:15";115
"13.04.2024 23:30";115
"13.04.2024 23:45";115
"14.04.2024 00:00";115
"14.04.2024 00:15";115
"14.04.2024 00:30";115
"14.04.2024 00:45";115
"14.04.2024 01:00";115
"14.04.2024 01:15";115
"14.04.2024 01:30";115
"14.04.2024 01:45";115
"14.04.2024 02:00";115
"14.04.2024 02:15";115
"14.04.2024 02:30";115
"14.04.2024 02:45";115
"14.04.2024 03:00";115
"14.04.2024 03:15";115
"14.04.2024 03:30";115
"14.04.2024 03:45";115
"14.04.2024 04:00";115
"14.04.2024 04:15";115
"14.04.2024 04:30";115
"14.04.2024 04:45";115
"14.04.2024 05:00";115
"14.04.2024 05:15";115
"14.04.2024 05:30";115
"14.04.2024 05:45";115
"14.04.2024 06:00";115
"14.04.2024 06:15";115
"14.04.2024 06:30";115
"14.04.2024 06:45";114
"14.04.2024 07:00";115
"14.04.2024 07:15";114
"14.04.2024 07:30";110
"14.04.2024 07:45";107
"14.04.2024 08:00";108
"14.04.2024 08:15";109
"14.04.2024 08:30";111
"14.04.2024 08:45";111
"14.04.2024 09:00";112
"14.04.2024 09:15";112
"14.04.2024 09:30";113
"14.04.2024 09:45";113
"14.04.2024 10:00";113
"14.04.2024 10:15";113
"14.04.2024 10:30";114
"14.04.2024 10:45";114
"14.04.2024 11:00";114
"14.04.2024 11:15";115
"14.04.2024 11:30";115
"14.04.2024 11:45";115
"14.04.2024 12:00";115
"14.04.2024 12:15";115
"14.04.2024 12:30";115
"14.04.2024 12:45";115
"14.04.2024 13:00";115
"14.04.2024 13:15";115
"14.04.2024 13:30";115
"14.04.2024 13:45";115
"14.04.2024 14:00";115
"14.04.2024 14:15";115
"14.04.2024 14:30";115
"14.04.2024 14:45";115
"14.04.2024 15:00";114
"14.04.2024 15:15";111
"14.04.2024 15:30";110
"14.04.2024 15:45";111
"14.04.2024 16:00";112
"14.04.2024 16:15";113
"14.04.2024 16:30";113
"14.04.2024 16:45";113
"14.04.2024 17:00";114
"14.04.2024 17:15";114
"14.04.2024 17:30";114
"14.04.2024 17:45";114
"14.04.2024 18:00";114
"14.04.2024 18:15";114
"14.04.2024 18:30";114
"14.04.2024 18:45";114
"14.04.2024 19:00";114
"14.04.2024 19:15";114
"14.04.2024 19:30";114
"14.04.2024 19:45";114
"14.04.2024 20:00";114
"14.04.2024 20:15";114
"14.04.2024 20:30";114
"14.04.2024 20:45";114
"14.04.2024 21:00";114
"14.04.2024 21:15";114
"14.04.2024 21:30";114
"14.04.2024 21:45";114
"14.04.2024 22:00";114
"14.04.2024 22:15";114
"14.04.2024 22:30";114
"14.04.2024 22:45";114
"14.04.2024 23:00";114
"14.04.2024 23:15";114
"14.04.2024 23:30";114
"14.04.2024 23:45";114
"15.04.2024 00:00";114
"15.04.2024 00:15";114
"15.04.2024 00:30";114
"15.04.2024 00:45";114
"15.04.2024 01:00";114
"15.04.2024 01:15";114
"15.04.2024 01:30";114
"15.04.2024 01:45";114
"15.04.2024 02:00";114
"15.04.2024 02:15";114
"15.04.2024 02:30";114
"15.04.2024 02:45";114
"15.04.2024 03:00";114
"15.04.2024 03:15";114
"15.04.2024 03:30";114
"15.04.2024 03:45";114
"15.04.2024 04:00";114
"15.04.2024 04:15";114
"15.04.2024 04:30";114
"15.04.2024 04:45";114
"15.04.2024 05:00";114
"15.04.2024 05:15";114
"15.04.2024 05:30";114
"15.04.2024 05:45";114
"15.04.2024 06:00";114
"15.04.2024 06:15";114
"15.04.2024 06:30";114
"15.04.2024 06:45";114
"15.04.2024 07:00";114
"15.04.2024 07:15";114
"15.04.2024 07:30";114
"15.04.2024 07:45";114
"15.04.2024 08:00";114
"15.04.2024 08:15";114
"15.04.2024 08:30";114
"15.04.2024 08:45";116
"15.04.2024 09:00";117
"15.04.2024 09:15";118
"15.04.2024 09:30";118
"15.04.2024 09:45";118
"15.04.2024 10:00";118
"15.04.2024 10:15";118
"15.04.2024 10:30";118
"15.04.2024 10:45";118
"15.04.2024 11:00";118
"15.04.2024 11:15";118
"15.04.2024 11:30";117
"15.04.2024 11:45";115
"15.04.2024 12:00";114
"15.04.2024 12:15";113
"15.04.2024 12:30";113
"15.04.2024 12:45";113
"15.04.2024 13:00";113
"15.04.2024 13:15";113
"15.04.2024 13:30";113
"15.04.2024 13:45";113
"15.04.2024 14:00";113
"15.04.2024 14:15";113
"15.04.2024 14:30";113
"15.04.2024 14:45";112
"15.04.2024 15:00";109
"15.04.2024 15:15";108
"15.04.2024 15:30";113
"15.04.2024 15:45";117
"15.04.2024 16:00";116
"15.04.2024 16:15";115
"15.04.2024 16:30";116
"15.04.2024 16:45";118
"15.04.2024 17:00";118
"15.04.2024 17:15";116
"15.04.2024 17:30";115
"15.04.2024 17:45";115
"15.04.2024 18:00";115
"15.04.2024 18:15";115
"15.04.2024 18:30";115
"15.04.2024 18:45";115
"15.04.2024 19:00";115
"15.04.2024 19:15";115